Dallas/Ft Worth, TX

11:00 PM CDT on June 25, 2017 (GMT -0500)
Dallas-Fort Worth International

Weather History for KDFW - May, 2014

Change the Weather History Date:

Thursday, May 22, 2014

  Actual Average Record
Temperature  
Mean Temperature 79 °F 76 °F  
Max Temperature 89 °F 85 °F 99 °F (2005)
Min Temperature 69 °F 66 °F 51 °F (1931)
Degree Days  
Heating Degree Days 0 0  
Month to date heating degree days 9 6  
Since 1 July heating degree days 2603 2282  
Cooling Degree Days 14 11  
Month to date cooling degree days 195 176  
Year to date cooling degree days 362 314  
Growing Degree Days 29 (Base 50)    
Moisture  
Dew Point 63 °F    
Average Humidity 64    
Maximum Humidity 84    
Minimum Humidity 43    
Precipitation  
Precipitation 0.00 in 0.16 in 1.62 in (1940)
Month to date precipitation 1.23 3.50  
Year to date precipitation 5.16 14.85  
Sea Level Pressure  
Sea Level Pressure 30.04 in    
Wind  
Wind Speed 13 mph (South)    
Max Wind Speed 23 mph    
Max Gust Speed 28 mph    
Visibility 10 miles    
Events      
T = Trace of Precipitation, MM = Missing Value Source: NWS Daily Summary

Daily Weather History Graph

Daily Weather History Graph

Search for Another Location

Airport or City:

Trip Planner

Search our weather history database for the weather conditions in past years. The results will help you decide how hot, cold, wet, or windy it might be!

Date:

Astronomy

May. 22, 2014 Rise Set
Actual Time 6:24 AM CDT 8:25 PM CDT
Civil Twilight 5:57 AM CDT 8:53 PM CDT
Nautical Twilight 5:23 AM CDT 9:26 PM CDT
Astronomical Twilight 4:47 AM CDT 10:02 PM CDT
Moon 2:24 AM CDT (5/22) 2:33 PM CDT (5/22)
Length of Visible Light 14h 55m
Length of Day
14h 00m
Last Quarter, 37% of the Moon is Illuminated
May 22
Last Quarter
May 28
New
Jun 5
First Quarter
Jun 12
Full
Jun 19
Last Quarter

Hourly Weather History & Observations

Time (CDT) Temp. Heat Index Dew Point Humidity Pressure Visibility Wind Dir Wind Speed Gust Speed Precip Events Conditions
12:53 AM 75.0 °F - 61.0 °F 62% 30.03 in 10.0 mi SSE 11.5 mph - N/A   Partly Cloudy
1:53 AM 75.0 °F - 63.0 °F 66% 30.02 in 10.0 mi South 16.1 mph - N/A   Mostly Cloudy
2:53 AM 73.9 °F - 64.0 °F 71% 30.01 in 10.0 mi South 13.8 mph - N/A   Mostly Cloudy
3:53 AM 73.0 °F - 64.0 °F 73% 30.01 in 10.0 mi South 13.8 mph - N/A   Mostly Cloudy
4:53 AM 71.1 °F - 64.0 °F 78% 30.02 in 10.0 mi South 13.8 mph - N/A   Scattered Clouds
5:53 AM 70.0 °F - 63.0 °F 78% 30.02 in 10.0 mi South 12.7 mph - N/A   Scattered Clouds
6:47 AM 69.8 °F - 64.4 °F 83% 30.07 in 10.0 mi South 13.8 mph - N/A   Mostly Cloudy
6:53 AM 70.0 °F - 64.0 °F 81% 30.05 in 10.0 mi South 12.7 mph 21.9 mph N/A   Mostly Cloudy
7:15 AM 70.0 °F - 64.0 °F 81% 30.08 in 10.0 mi South 16.1 mph - N/A   Scattered Clouds
7:53 AM 72.0 °F - 64.0 °F 76% 30.06 in 10.0 mi South 16.1 mph - N/A   Scattered Clouds
8:53 AM 75.0 °F - 64.0 °F 69% 30.07 in 10.0 mi South 18.4 mph - N/A   Partly Cloudy
9:36 AM 75.9 °F - 64.0 °F 67% 30.11 in 10.0 mi SSW 17.3 mph - N/A   Mostly Cloudy
9:53 AM 77.0 °F - 64.0 °F 64% 30.09 in 10.0 mi SSW 13.8 mph - N/A   Scattered Clouds
10:53 AM 81.0 °F 82.5 °F 64.0 °F 56% 30.09 in 10.0 mi South 13.8 mph 23.0 mph N/A   Mostly Cloudy
11:53 AM 82.9 °F 84.4 °F 64.0 °F 53% 30.08 in 10.0 mi SSW 15.0 mph - N/A   Mostly Cloudy
12:53 PM 82.9 °F 84.4 °F 64.0 °F 53% 30.08 in 10.0 mi SSW 10.4 mph - N/A   Mostly Cloudy
1:53 PM 86.0 °F 86.8 °F 63.0 °F 46% 30.06 in 10.0 mi South 15.0 mph 23.0 mph N/A   Mostly Cloudy
2:53 PM 86.0 °F 86.3 °F 62.1 °F 44% 30.05 in 10.0 mi SSE 10.4 mph 21.9 mph N/A   Mostly Cloudy
3:53 PM 87.8 °F 88.5 °F 62.6 °F 43% 30.05 in 10.0 mi SSE 13.8 mph - N/A   Mostly Cloudy
4:53 PM 88.0 °F 88.7 °F 63.0 °F 43% 30.00 in 10.0 mi SSE 12.7 mph - N/A   Mostly Cloudy
5:53 PM 88.0 °F 88.7 °F 63.0 °F 43% 29.98 in 10.0 mi SSE 16.1 mph - N/A   Mostly Cloudy
6:53 PM 86.0 °F 86.3 °F 62.1 °F 44% 29.95 in 10.0 mi SSE 16.1 mph 25.3 mph N/A   Mostly Cloudy
7:53 PM 82.9 °F 84.0 °F 63.0 °F 51% 29.95 in 10.0 mi SSE 12.7 mph - N/A   Scattered Clouds
8:53 PM 81.0 °F 82.5 °F 64.0 °F 56% 29.99 in 10.0 mi SSE 12.7 mph - N/A   Scattered Clouds
9:53 PM 79.0 °F - 64.0 °F 60% 30.02 in 10.0 mi SE 8.1 mph - N/A   Mostly Cloudy
10:53 PM 77.0 °F - 64.0 °F 64% 30.04 in 10.0 mi SE 8.1 mph - N/A   Mostly Cloudy
11:53 PM 75.9 °F - 64.0 °F 67% 30.04 in 10.0 mi SE 8.1 mph - N/A   Partly Cloudy